Preview of NWS' New Version of Forecast
This preview is not operational and should not be used for support decisions.

Regional Weather Roundup (RWR)

Issued by National Weather Service (NWS)

                            
000
ASUS43 KMKX 200800
RWRWI 

WISCONSIN REGIONAL WEATHER ROUNDUP
NATIONAL WEATHER SERVICE MILWAUKEE/SULLIVAN WI
300 AM CDT TUE AUG 20 2019

NOTE: "FAIR" INDICATES FEW OR NO CLOUDS BELOW 12,000 FEET WITH NO
SIGNIFICANT WEATHER AND/OR OBSTRUCTIONS TO VISIBILITY.

WIZ001-002-006>008-014>016-023>028-200900-
NORTHWEST WISCONSIN
  
CITY           SKY/WX    TMP DP  RH WIND       PRES   REMARKS
SUPERIOR ARPT  FAIR      61  58  91 CALM      29.95S                  
ASHLAND        FAIR      59  56  89 S5        29.97F                  
HAYWARD        FAIR      53  50  89 CALM      30.01S                  
SIREN          FAIR      62  58  89 S5        29.98S                  
CUMBERLAND     FAIR      55  54  94 CALM      30.01S                  
RICE LAKE      FAIR      57  41  54 CALM      30.02F                  
CHETEK         FAIR      56  56 100 CALM      30.02S                  
LADYSMITH      FAIR      56  56  99 E5        30.04F                  
EAU CLAIRE     NOT AVBL                                               
MENOMONIE      FAIR      55  55  97 E3        30.01F                  
NEW RICHMOND   FAIR      60  58  94 SE3       30.01F                  
OSCEOLA        FAIR      63  62  96 S3        30.02F                  
$$
 
WIZ003>005-009-010-017-018-200900-
NORTH CENTRAL WISCONSIN
  
CITY           SKY/WX    TMP DP  RH WIND       PRES   REMARKS
MANITOWISH WTR FAIR      49  49 100 CALM      30.04S                  
ARBOR VITAE    FAIR      55  52  90 CALM      30.04S                  
WOODRUFF       FAIR      55  52  90 CALM      30.04S                  
RHINELANDER    FAIR      52  50  93 CALM      30.06S FOG              
EAGLE RIVER    MOCLDY    50  50 100 CALM      30.04S FOG              
LAND O LAKES   FAIR      48  48  99 CALM      30.06R                  
PHILLIPS       FAIR      52  52 100 CALM      30.04S                  
TOMAHAWK       FAIR      49  48  97 CALM      30.06S                  
MEDFORD        FOG       50  50  99 CALM      30.04F VSB 1/2          
MERRILL        FAIR      49  49 100 CALM      30.06S                  
$$
 
WIZ029-030-035-036-043>047-200900-
CENTRAL WISCONSIN
  
CITY           SKY/WX    TMP DP  RH WIND       PRES   REMARKS
WAUSAU         FAIR      53  53 100 E3        30.04S                  
MOSINEE        FAIR      54  54 100 CALM      30.05F                  
MARSHFIELD     FAIR      56  54  93 CALM      30.05R                  
STEVENS POINT  FAIR      49  49 100 CALM      30.06R                  
WAUPACA        FAIR      56  55  97 CALM      30.05R                  
WAUTOMA        FAIR      54  53  97 CALM      30.05R                  
WISC RAPIDS    FAIR      55  53  93 CALM      30.05R                  
CAMP DOUGLAS   FAIR      52  52 100 CALM      30.05R                  
$$
 
WIZ011>013-019>022-031-037>040-048>050-200900-
NORTHEAST WISCONSIN
  
CITY           SKY/WX    TMP DP  RH WIND       PRES   REMARKS
ANTIGO         FAIR      49  49 100 CALM      30.06S                  
SHAWANO        FAIR      56  55  96 CALM      30.04S                  
OCONTO         FAIR      52  51  97 CALM      30.04R                  
STURGEON BAY   FAIR      60  56  86 S3        30.04S                  
GREEN BAY      FAIR      58  56  93 CALM      30.04S                  
MANITOWOC      FAIR      58  57  97 CALM      30.05R                  
APPLETON       FAIR      61  52  72 CALM      30.03S                  
CLINTONVILLE   FAIR      53  50  90 CALM      30.04S                  
OSHKOSH        FAIR      60  56  86 CALM      30.03F                  
$$
 
WIZ032>034-041-042-053>061-200900-
SOUTHWEST WISCONSIN
  
CITY           SKY/WX    TMP DP  RH WIND       PRES   REMARKS
LA CROSSE      FAIR      62  59  90 SE5       30.03S                  
SPARTA         FAIR      48  48  99 CALM      30.06R                  
VIROQUA        FAIR      61  61 100 SE5       30.07R                  
BOSCOBEL       FOG       62  60  93 CALM      30.06R VSB 1/4          
PRAIRIE DU CHI FAIR      61  60  96 E3        30.05R                  
PLATTEVILLE    FAIR      62  62 100 N3        30.06R                  
$$

WIZ056-057-062-063-064-067-068-200900-
SOUTH CENTRAL WISCONSIN
  
CITY           SKY/WX    TMP DP  RH WIND       PRES   REMARKS
REEDSBURG      FAIR      57  57 100 CALM      30.06R                  
BARABOO/DELLS  FAIR      57  55  95 CALM      30.06R                  
LONE ROCK      FOG       60  60 100 CALM      30.05R VSB 1            
MINERAL POINT    N/A     64  63  94 MISG      30.06S                  
MADISON        FAIR      60  59  96 CALM      30.04R                  
MIDDLETON      FAIR      59  26  27 CALM      30.05S                  
WATERTOWN      FAIR      61  61 100 CALM      30.03S                  
MONROE         FAIR      68  64  86 N5        30.05R                  
JANESVILLE       N/A     64  64 100 CALM      30.03R FOG              
$$
 
WIZ051-052-058>065-066-070>072-200900-
SOUTHEAST WISCONSIN
  
CITY           SKY/WX    TMP DP  RH WIND       PRES   REMARKS
MILWAUKEE      FAIR      70  67  90 NE3       30.03S                  
WAUKESHA       FAIR      63  61  94 CALM      30.05S                  
MILWAUKEE/TIMM FAIR      66  63  88 CALM      30.05S                  
RACINE         MOCLDY    70  67  90 CALM      30.05R                  
KENOSHA        MOCLDY    71  70  96 N5        30.03S                  
FOND DU LAC    FAIR      59  56  89 CALM      30.04F                  
SHEBOYGAN      FAIR      57  55  93 CALM      30.04S                  
WEST BEND      FAIR      59  59 100 CALM      30.05S                  
JUNEAU         FAIR      61  59  93 CALM      30.05F                  
$$

LSZ147-162-200900-
LAKE SUPERIOR
  
STATION/POSITION TIME  TEMP    WIND        PRES    WAVE
                       AIR SEA DIR/SP/G            HT/PER
                 (UTC) (F)     (DEG/KT/KT) (MB)    (FT/S)
W MID LAKE BUOY  0650   66 63  240/ 12/ 16 1013.3R   3/ 4
DEVILS ISLAND    0700   70     230/ 12/ 14 1014.0R
SAXON HARBOR     0740   67     190/  6/  8 1014.6S
$$
 
LMZ867-665-643>646-200900-
LAKE MICHIGAN
  
STATION/POSITION TIME  TEMP    WIND        PRES    WAVE
                       AIR SEA DIR/SP/G            HT/PER
                 (UTC) (F)     (DEG/KT/KT) (MB)    (FT/S)
S GREEN BAY BUOY 0730   74 70  240/ 10/ 12 1017.1R
N MID LAKE BUOY  0740   70 69  230/ 12/ 14 1016.8R
NORTHPORT PIER   0740   62      CALM  /  3 1016.6R
KEWAUNEE LAKESHO 0730   61      CALM  /  3 1016.5R
SHEBOYGAN LAKESH 0700   68     260/  1/  2 1017.2R
PORT WASHINGTON  0730   68     330/  3/  4 1018.3R
S MID LAKE BUOY  0740   74 74   80/  6/  6 1016.7S
KENOSHA   LAKESH 0700   73     360/  2/  4 1016.6
$$

TC  - TEMPERATURE IN CELSIUS
VSB - VISIBILITY IN STATUTE MILES
WCI - WIND CHILL INDEX
HX  - HEAT INDEX